This is the latest recevied weather packets stored in our database for station/object F4IEI-10. If no packets are shown the sender has not sent any weather packets the latest 10 day(s).
| Time | Temp. | Humidity | Pressure | Rain* | Wind** | Luminosity | Snow |
|---|---|---|---|---|---|---|---|
| 1777469306 | 22.78° C | 41% | 1018 hPa | - | - | - | - |
| 1777468406 | 22.78° C | 41% | 1017.8 hPa | - | - | - | - |
| 1777467506 | 22.22° C | 44% | 1017.9 hPa | - | - | - | - |
| 1777466606 | 22.22° C | 44% | 1018.1 hPa | - | - | - | - |
| 1777465706 | 21.67° C | 44% | 1018.2 hPa | - | - | - | - |
| 1777464806 | 21.11° C | 45% | 1018.3 hPa | - | - | - | - |
| 1777463913 | 21.11° C | 45% | 1018.2 hPa | - | - | - | - |
| 1777463006 | 20.56° C | 45% | 1018.4 hPa | - | - | - | - |
| 1777462106 | 20.56° C | 48% | 1018.6 hPa | - | - | - | - |
| 1777461206 | 20° C | 49% | 1018.7 hPa | - | - | - | - |
| 1777460306 | 20° C | 49% | 1018.9 hPa | - | - | - | - |
| 1777459406 | 18.89° C | 50% | 1019.1 hPa | - | - | - | - |
| 1777458507 | 18.89° C | 51% | 1019.1 hPa | - | - | - | - |
| 1777457609 | 18.89° C | 52% | 1019.4 hPa | - | - | - | - |
| 1777456709 | 17.78° C | 54% | 1019.2 hPa | - | - | - | - |
| 1777455809 | 17.22° C | 54% | 1019.2 hPa | - | - | - | - |
| 1777454908 | 16.67° C | 55% | 1019.1 hPa | - | - | - | - |
| 1777454009 | 16.11° C | 56% | 1019.2 hPa | - | - | - | - |
| 1777453109 | 15.56° C | 56% | 1019.1 hPa | - | - | - | - |
| 1777452205 | 16.11° C | 56% | 1019.2 hPa | - | - | - | - |
| 1777451304 | 15.56° C | 58% | 1019.3 hPa | - | - | - | - |
| 1777450404 | 13.89° C | 60% | 1019.2 hPa | - | - | - | - |
| 1777449504 | 13.33° C | 61% | 1019.2 hPa | - | - | - | - |
| 1777448604 | 13.33° C | 64% | 1019 hPa | - | - | - | - |
| 1777447704 | 12.78° C | 66% | 1019 hPa | - | - | - | - |
* Rain since midnight (hover to see other rain measurements)
** Current wind speed in m/s (hover to see current wind gust speed)